Regional Weather Roundup
Issued by NWS

Home | Current Version | Previous Version | Graphics & Text | Print | Product List | Glossary On
Versions: 1 2 3 4 5 6 7 8 9 10 11 12 13 14 15 16 17 18 19 20 21 22 23 24 25 26 27 28 29 30 31 32 33 34 35 36 37 38 39 40 41 42 43 44 45 46 47 48 49 50
000
ASUS45 KTFX 241510
RWRMT
MONTANA REGIONAL WEATHER ROUNDUP
NATIONAL WEATHER SERVICE GREAT FALLS MT
900 AM MDT WED MAY 24 2017

NOTE: "FAIR" INDICATES FEW OR NO CLOUDS BELOW 12000 FEET WITH NO
SIGNIFICANT WEATHER AND/OR OBSTRUCTIONS TO VISIBILITY.

MTZ001>007-043-241600-
WEST OF THE DIVIDE

CITY           SKY/WX    TMP DP  RH WIND       PRES   REMARKS
KALISPELL      SUNNY     57  25  29 SW26G37   29.51S
MISSOULA       SUNNY     58  29  33 W25G38    29.69R
BUTTE          PTSUNNY   62  32  32 W17G33    29.63R
MULLAN PASS    SUNNY     36  19  50 VRB6      29.71R WCI  31
ANACONDA         N/A     61  25  25 W17G26    29.61R
DEER LODGE       N/A     61  19  20 W6G18     29.63S
EUREKA           N/A     54  18  24 SW14G23   29.51R
HAMILTON         N/A     57  28  33 W12G17    29.68S
PLAINS           N/A     57  25  29 SW12      29.69
RONAN            N/A     57  23  27 SW17      29.71S
$$

MTZ008-052>055-241600-
SOUTHWEST MONTANA

CITY           SKY/WX    TMP DP  RH WIND       PRES   REMARKS
BOZEMAN        MOSUNNY   74  41  30 SW13      29.49F
DILLON         SUNNY     68  37  32 W24G39    29.57F
W YELLOWSTONE  CLOUDY    54  36  50 SW12G31   29.74F
ENNIS          SUNNY     66  39  37 S25G35    29.62S
THREE FORKS      N/A     69  47  45 CALM      29.53F
$$

MTZ009-010-012-014-046-048-049-054-241600-
EAST SLOPES AND CENTRAL MONTANA

CITY           SKY/WX    TMP DP  RH WIND       PRES   REMARKS
CUT BANK       PTSUNNY   59  24  26 W37G52    29.38R
GREAT FALLS    SUNNY     64  28  25 SW33G44   29.44R
MALMSTROM AFB  SUNNY     65  28  25 SW35G48   29.45R
HELENA         SUNNY     67  32  27 W17G28    29.52R
CHOTEAU          N/A     61  19  20 W26G39    29.47R
CONRAD           N/A     62  37  39 SW23      29.49R
$$

MTZ011-013-016-021-045-047-050-051-241600-
NORTH CENTRAL MONTANA

CITY           SKY/WX    TMP DP  RH WIND       PRES   REMARKS
HAVRE          SUNNY     72  28  19 W36G46    29.29R
LEWISTOWN      SUNNY     70  44  39 SW24G33   29.41F
N BAR RANCH      N/A     72  41  33 W10G23    29.46F
CHINOOK          N/A     73  37  27 SW24G38   29.27S
FORT BENTON      N/A     70  27  19 MISG      29.39S
$$

MTZ017>020-022>027-061-062-241600-
NORTHEAST MONTANA

CITY           SKY/WX    TMP DP  RH WIND       PRES   REMARKS
GLASGOW        SUNNY     65  38  36 S20G28    29.34F
JORDAN           N/A     70  38  31 S9        29.38F
SIDNEY         SUNNY     63  38  39 S30G36    29.50F
WOLF POINT     SUNNY     66  38  35 S10G18    29.40F
MALTA          SUNNY     70  46  43 SW10G17   29.29F
PLENTYWOOD       N/A     61  36  39 SE32G38   29.47F
SCOBEY           N/A     63  33  32 SE30      29.39F
$$

MTZ028>42-056>058-241600-
SOUTHCENTRAL AND SOUTHEAST MONTANA

CITY           SKY/WX    TMP DP  RH WIND       PRES   REMARKS
BAKER          SUNNY     58  37  45 SE29G37   29.56F
BILLINGS       MOSUNNY   68  38  33 SW16      29.46F
LIVINGSTON     MOSUNNY   70  41  34 SW30G39   29.46F
MILES CITY     SUNNY     61  39  44 S21       29.47F
BIG TIMBER     SUNNY     68  45  42 W12G17    29.48F
EKALAKA          N/A     58  35  42 SE21      29.58F
FORSYTH          N/A     66  43  42 SE6       29.44F
LAUREL           N/A     69  39  33 S6        29.51R
ROUNDUP          N/A     68  40  35 S9        29.40F
$$

REGIONAL REPORTS...DAKOTAS

CITY           SKY/WX    TMP DP  RH WIND       PRES   REMARKS
WILLISTON      SUNNY     62  37  39 SE23G39   29.53F
MINOT          MOSUNNY   61  34  36 SE20G37   29.67F
DICKINSON      SUNNY     56  34  43 S29G36    29.61F
BEACH            N/A     59  36  41 S30G39    29.58F
TIOGA            N/A     57  36  44 S28G37    29.60F
WATFORD CITY     N/A     59  37  44 S23       29.58F
BISMARCK       SUNNY     59  42  53 SE15      29.72F
GRAND FORKS    SUNNY     60  45  57 SE12      29.79F
FARGO          SUNNY     57  45  64 SE9       29.80F
BUFFALO SD       N/A     59  38  45 SE25G37   29.55F
RAPID CITY     SUNNY     55  40  56 S20       29.69F
$$

REGIONAL REPORTS...WYOMING/IDAHO/WASHINGTON

CITY           SKY/WX    TMP DP  RH WIND       PRES   REMARKS
GILLETTE       SUNNY     58  43  57 S14G20    29.61F
SHERIDAN       SUNNY     60  48  64 N5        29.55F
BUFFALO WY     SUNNY     66  46  48 SE7       29.61F
CODY           CLOUDY    69  37  30 W15G23    29.63F
YELLOWSTONE LA   N/A     50  34  54 VRB5      29.83F
IDAHO FALLS    MOSUNNY   62  43  49 SW15      29.74F
SALMON         MOSUNNY   61  46  59 NW8       29.59F
BOISE          SUNNY     64  38  38 NW22      29.80S
SPOKANE        MOSUNNY   50  28  42 SW13      29.78R
$$

REGIONAL REPORTS...ALBERTA

CITY           SKY/WX    TMP DP  RH WIND       PRES   REMARKS
EDMONTON       LGT RAIN  52  50  93 NW5       29.06F
CALGARY        PTSUNNY   50  36  57 N15       29.25R
LETHBRIDGE     MOSUNNY   59  23  25 W29G40    29.27S
MEDICINE HAT   MOSUNNY   70  30  23 W39G49    29.17S
WATERTON GATE    N/A     52  12  20 W29G46      N/A
CARDSTON         N/A     54  27  35 W16G28      N/A
MILK RIVER       N/A     63  25  23 W36G48      N/A
$$

REGIONAL REPORTS...SASKATCHEWAN

CITY           SKY/WX    TMP DP  RH WIND       PRES   REMARKS
REGINA         PTSUNNY   61  36  39 SE30G40   29.37F
SASKATOON      PTSUNNY   61  41  48 SE18G31   29.15F
CYPRESS HILLS    N/A     63  25  23 W21G35      N/A
VAL MARIE        N/A     66  39  37 S22G28      N/A
ROCKGLEN         N/A     61  37  41 S21G29      N/A
ASSINIBOIA       N/A     54  50  87 W10         N/A
$$



USA.gov is the U.S. government's official web portal to all federal, state and local government web resources and services.